Weather History for KAQV - May, 2013

Change the Weather History Date:

Saturday, May 18, 2013

  Actual Average (KPOE) Record (KPOE)
Temperature  
Mean Temperature 81 °F -  
Max Temperature 89 °F 82 °F 91 °F (1998)
Min Temperature 73 °F 62 °F 53 °F (2002)
Cooling Degree Days 16    
Growing Degree Days 31 (Base 50)    
Moisture  
Dew Point 70 °F    
Average Humidity 76    
Maximum Humidity 90    
Minimum Humidity 52    
Precipitation  
Precipitation 0.00 in - - ()
Sea Level Pressure  
Sea Level Pressure 29.95 in    
Wind  
Wind Speed 5 mph (South)    
Max Wind Speed 9 mph    
Max Gust Speed 16 mph    
Visibility 9 miles    
Events      
Averages and records for this station are not official NWS values.
T = Trace of Precipitation, MM = Missing Value Source: NWS Daily Summary

Daily Weather History Graph

Daily Weather History Graph

Search for Another Location

Airport or City:

Trip Planner

Search our weather history database for the weather conditions in past years. The results will help you decide how hot, cold, wet, or windy it might be!

Date:

Astronomy

May. 18, 2013 Rise Set
Actual Time 6:14 AM CDT 8:04 PM CDT
Civil Twilight 5:48 AM CDT 8:31 PM CDT
Nautical Twilight 5:15 AM CDT 9:03 PM CDT
Astronomical Twilight 4:41 AM CDT 9:38 PM CDT
Moon 1:33 PM CDT (5/18) 1:41 AM CDT (5/18)
Length of Visible Light 14h 43m
Length of Day
13h 49m
First Quarter, 55% of the Moon is Illuminated
May 18
First Quarter
May 24
Full
May 31
Last Quarter
Jun 8
New
Jun 16
First Quarter

Hourly Weather History & Observations

Time (CDT) Temp. Heat Index Dew Point Humidity Pressure Visibility Wind Dir Wind Speed Gust Speed Precip Events Conditions
12:44 AM 73.4 °F - 69.8 °F 88% 29.94 in 8.0 mi Variable 6.9 mph - N/A   Overcast
12:56 AM 73.0 °F - 70.0 °F 90% 29.94 in 8.0 mi Variable 5.8 mph - N/A   Overcast
1:56 AM 73.9 °F - 70.0 °F 87% 29.92 in 7.0 mi Variable 5.8 mph - N/A   Overcast
2:10 AM 73.4 °F - 69.8 °F 88% 29.93 in 6.0 mi Variable 3.5 mph - N/A   Overcast
2:56 AM 73.9 °F - 70.0 °F 87% 29.92 in 6.0 mi South 5.8 mph - N/A   Overcast
3:56 AM 73.9 °F - 70.0 °F 87% 29.92 in 7.0 mi Variable 4.6 mph - N/A   Overcast
4:56 AM 73.9 °F - 70.0 °F 87% 29.93 in 7.0 mi Variable 3.5 mph - N/A   Overcast
5:07 AM 73.4 °F - 69.8 °F 88% 29.94 in 6.0 mi Variable 3.5 mph - N/A   Overcast
5:23 AM 73.4 °F - 69.8 °F 88% 29.94 in 7.0 mi Variable 5.8 mph - N/A   Overcast
5:56 AM 73.9 °F - 70.0 °F 87% 29.94 in 9.0 mi SSW 4.6 mph - N/A   Overcast
6:10 AM 73.4 °F - 69.8 °F 88% 29.96 in 9.0 mi Calm Calm - N/A   Overcast
6:29 AM 73.4 °F - 69.8 °F 88% 29.96 in 9.0 mi Calm Calm - N/A   Overcast
6:56 AM 73.9 °F - 70.0 °F 87% 29.96 in 8.0 mi Calm Calm - N/A   Overcast
7:56 AM 75.0 °F - 70.0 °F 84% 29.97 in 10.0 mi Calm Calm - N/A   Overcast
8:56 AM 78.1 °F - 70.0 °F 76% 29.99 in 10.0 mi Variable 4.6 mph - N/A   Overcast
9:56 AM 79.0 °F - 70.0 °F 74% 29.99 in 10.0 mi Variable 6.9 mph - N/A   Mostly Cloudy
10:37 AM 80.6 °F 83.9 °F 69.8 °F 70% 30.00 in 10.0 mi Variable 5.8 mph - N/A   Scattered Clouds
10:56 AM 81.0 °F 84.4 °F 70.0 °F 69% 29.99 in 10.0 mi South 5.8 mph - N/A   Partly Cloudy
11:56 AM 84.9 °F 89.4 °F 70.0 °F 61% 29.99 in 10.0 mi Variable 6.9 mph - N/A   Clear
12:56 PM 87.1 °F 92.0 °F 70.0 °F 57% 29.97 in 10.0 mi South 8.1 mph - N/A   Partly Cloudy
1:56 PM 88.0 °F 92.9 °F 70.0 °F 55% 29.95 in 10.0 mi Variable 4.6 mph - N/A   Partly Cloudy
2:56 PM 89.1 °F 93.7 °F 69.1 °F 52% 29.94 in 10.0 mi Variable 4.6 mph - N/A   Partly Cloudy
3:56 PM 89.1 °F 93.7 °F 69.1 °F 52% 29.93 in 10.0 mi SW 4.6 mph 16.1 mph N/A   Partly Cloudy
4:56 PM 89.1 °F 94.1 °F 70.0 °F 53% 29.92 in 10.0 mi Variable 5.8 mph - N/A   Partly Cloudy
5:56 PM 87.1 °F 91.3 °F 69.1 °F 55% 29.92 in 10.0 mi South 9.2 mph - N/A   Clear
6:56 PM 84.0 °F 87.0 °F 68.0 °F 58% 29.92 in 8.0 mi Variable 3.5 mph - N/A   Clear
7:56 PM 80.1 °F 82.7 °F 68.0 °F 67% 29.93 in 10.0 mi South 4.6 mph - N/A   Clear
8:56 PM 78.1 °F - 68.0 °F 71% 29.92 in 10.0 mi South 4.6 mph - N/A   Clear
9:56 PM 75.0 °F - 68.0 °F 79% 29.93 in 10.0 mi South 3.5 mph - N/A   Clear
10:56 PM 73.9 °F - 69.1 °F 85% 29.93 in 10.0 mi Variable 3.5 mph - N/A   Clear
11:56 PM 73.0 °F - 70.0 °F 90% 29.92 in 9.0 mi Variable 4.6 mph - N/A   Clear